owner,sensor,date,latitude,longitude,vertical_datum,wind_speed,wind_to_direction,wind_speed_of_gust,qcFlag 
TABS,ioos:station:wmo:42044:1,2009-12-01T00:00:00Z,26.1914,-97.0507,0.0,8.61234579,4.128055662,10.62,'11111222,11111222,11111222' 
TABS,ioos:station:wmo:42044:1,2009-12-01T00:30:00Z,26.1914,-97.0507,0.0,8.71885887,352.2879152,11.17,'11111222,11111222,11111222' 
TABS,ioos:station:wmo:42044:1,2009-12-01T01:00:00Z,26.1914,-97.0507,0.0,8.410071343,354.4044517,10.59,'11111222,11111222,11111222' 
TABS,ioos:station:wmo:42044:1,2009-12-01T01:30:00Z,26.1914,-97.0507,0.0,7.800339736,10.48856703,10.01,'11111222,11111222,11111222' 
TABS,ioos:station:wmo:42044:1,2009-12-01T02:00:00Z,26.1914,-97.0507,0.0,7.41555797,15.08545957,9.22,'11111222,11111222,11111222' 
TABS,ioos:station:wmo:42044:1,2009-12-01T02:30:00Z,26.1914,-97.0507,0.0,7.442539889,9.044434925,9.68,'11111222,11111222,11111222' 
TABS,ioos:station:wmo:42044:1,2009-12-01T03:00:00Z,26.1914,-97.0507,0.0,7.093299655,17.89828268,9.12,'11111222,11111222,11111222' 
TABS,ioos:station:wmo:42044:1,2009-12-01T03:30:00Z,26.1914,-97.0507,0.0,6.842002631,14.30003355,9.15,'11111222,11111222,11111222' 
TABS,ioos:station:wmo:42044:1,2009-12-01T04:00:00Z,26.1914,-97.0507,0.0,6.321835177,15.22307699,8.87,'11111222,11111222,11111222' 
TABS,ioos:station:wmo:42044:1,2009-12-01T04:30:00Z,26.1914,-97.0507,0.0,6.170453792,14.64406793,7.6,'11111222,11111222,11111222' 
TABS,ioos:station:wmo:42044:1,2009-12-01T05:00:00Z,26.1914,-97.0507,0.0,9.528824691,310.2751039,12.29,'11111222,11111222,11111222' 
TABS,ioos:station:wmo:42044:1,2009-12-01T05:30:00Z,26.1914,-97.0507,0.0,10.29806292,302.3473679,12.65,'11111222,11111222,11111222' 
TABS,ioos:station:wmo:42044:1,2009-12-01T06:00:00Z,26.1914,-97.0507,0.0,12.08579745,301.3620723,15.09,'11111222,11111222,11111222' 
TABS,ioos:station:wmo:42044:1,2009-12-01T06:30:00Z,26.1914,-97.0507,0.0,12.00603182,284.5686397,14.86,'11111222,11111222,11111222' 
TABS,ioos:station:wmo:42044:1,2009-12-01T07:00:00Z,26.1914,-97.0507,0.0,10.09844047,296.0828847,13.07,'11111222,11111222,11111222' 
TABS,ioos:station:wmo:42044:1,2009-12-01T07:30:00Z,26.1914,-97.0507,0.0,10.80536904,294.1454855,14.14,'11111222,11111222,11111222' 
TABS,ioos:station:wmo:42044:1,2009-12-01T08:00:00Z,26.1914,-97.0507,0.0,10.83684456,305.1565308,13.29,'11111222,11111222,11111222' 
TABS,ioos:station:wmo:42044:1,2009-12-01T08:30:00Z,26.1914,-97.0507,0.0,10.88658808,299.5555024,13.95,'11111222,11111222,11111222' 
TABS,ioos:station:wmo:42044:1,2009-12-01T09:00:00Z,26.1914,-97.0507,0.0,9.53379253,320.5328798,11.84,'11111222,11111222,11111222' 
TABS,ioos:station:wmo:42044:1,2009-12-01T09:30:00Z,26.1914,-97.0507,0.0,7.737958387,334.428267,9.63,'11111222,11111222,11111222' 
TABS,ioos:station:wmo:42044:1,2009-12-01T10:00:00Z,26.1914,-97.0507,0.0,6.587700661,34.48583498,8.5,'11111222,11111222,11111222' 
TABS,ioos:station:wmo:42044:1,2009-12-01T10:30:00Z,26.1914,-97.0507,0.0,5.038223893,32.27029782,6.85,'11111222,11111222,11111222' 
TABS,ioos:station:wmo:42044:1,2009-12-01T11:00:00Z,26.1914,-97.0507,0.0,6.251151894,30.79056552,8.07,'11111222,11111222,11111222' 
TABS,ioos:station:wmo:42044:1,2009-12-01T11:30:00Z,26.1914,-97.0507,0.0,7.096266624,41.8008602,9.54,'11111222,11111222,11111222' 
TABS,ioos:station:wmo:42044:1,2009-12-01T12:00:00Z,26.1914,-97.0507,0.0,6.563025217,37.8823414,9.52,'11111222,11111222,11111222' 
TABS,ioos:station:wmo:42044:1,2009-12-01T12:30:00Z,26.1914,-97.0507,0.0,5.714630347,30.37884451,8.7,'11111222,11111222,11111222' 
TABS,ioos:station:wmo:42044:1,2009-12-01T13:00:00Z,26.1914,-97.0507,0.0,7.155200906,54.84363943,10.56,'11111222,11111222,11111222' 
TABS,ioos:station:wmo:42044:1,2009-12-01T13:30:00Z,26.1914,-97.0507,0.0,4.156404696,347.6354815,6.96,'11111222,11111222,11111222' 
TABS,ioos:station:wmo:42044:1,2009-12-01T14:00:00Z,26.1914,-97.0507,0.0,8.068983827,305.9750836,10.37,'11111222,11111222,11111222' 
TABS,ioos:station:wmo:42044:1,2009-12-01T14:30:00Z,26.1914,-97.0507,0.0,5.183097529,8.208038791,6.91,'11111222,11111222,11111222' 
TABS,ioos:station:wmo:42044:1,2009-12-01T15:00:00Z,26.1914,-97.0507,0.0,7.663191241,56.22664339,10.14,'11111222,11111222,11111222' 
TABS,ioos:station:wmo:42044:1,2009-12-01T15:30:00Z,26.1914,-97.0507,0.0,9.346041943,95.03387969,12.72,'11111222,11111222,11111222' 
TABS,ioos:station:wmo:42044:1,2009-12-01T16:00:00Z,26.1914,-97.0507,0.0,9.090792045,105.5042534,12.18,'11111222,11111222,11111222' 
TABS,ioos:station:wmo:42044:1,2009-12-01T16:30:00Z,26.1914,-97.0507,0.0,11.64034793,108.4820223,14.29,'11111222,11111222,11111222' 
TABS,ioos:station:wmo:42044:1,2009-12-01T17:00:00Z,26.1914,-97.0507,0.0,9.667781545,112.3740565,12.38,'11111222,11111222,11111222' 
TABS,ioos:station:wmo:42044:1,2009-12-01T17:30:00Z,26.1914,-97.0507,0.0,1.863169343,321.0999405,7.1,'11111222,11111222,11111222' 
TABS,ioos:station:wmo:42044:1,2009-12-01T18:00:00Z,26.1914,-97.0507,0.0,6.731456009,285.0684529,8.45,'11111222,11111222,11111222' 
TABS,ioos:station:wmo:42044:1,2009-12-01T18:30:00Z,26.1914,-97.0507,0.0,6.529823887,294.3277089,8.57,'11111222,11111222,11111222' 
TABS,ioos:station:wmo:42044:1,2009-12-01T19:00:00Z,26.1914,-97.0507,0.0,6.136000326,299.6984842,8.41,'11111222,11111222,11111222' 
TABS,ioos:station:wmo:42044:1,2009-12-01T19:30:00Z,26.1914,-97.0507,0.0,8.137530338,295.0848921,10.63,'11111222,11111222,11111222' 
TABS,ioos:station:wmo:42044:1,2009-12-01T20:00:00Z,26.1914,-97.0507,0.0,9.460158561,285.6375441,11.73,'11111222,11111222,11111222' 
TABS,ioos:station:wmo:42044:1,2009-12-01T20:30:00Z,26.1914,-97.0507,0.0,8.469356528,300.1979313,10.77,'11111222,11111222,11111222' 
TABS,ioos:station:wmo:42044:1,2009-12-01T21:00:00Z,26.1914,-97.0507,0.0,9.193611913,302.428098,11.39,'11111222,11111222,11111222' 
TABS,ioos:station:wmo:42044:1,2009-12-01T21:30:00Z,26.1914,-97.0507,0.0,10.2150722,306.0396604,12.69,'11111222,11111222,11111222' 
TABS,ioos:station:wmo:42044:1,2009-12-01T22:00:00Z,26.1914,-97.0507,0.0,10.16673497,304.7841791,13.28,'11111222,11111222,11111222' 
TABS,ioos:station:wmo:42044:1,2009-12-01T22:30:00Z,26.1914,-97.0507,0.0,11.8460964,305.0315619,14.62,'11111222,11111222,11111222' 
TABS,ioos:station:wmo:42044:1,2009-12-01T23:00:00Z,26.1914,-97.0507,0.0,10.71365951,308.3673957,13.07,'11111222,11111222,11111222' 
TABS,ioos:station:wmo:42044:1,2009-12-01T23:30:00Z,26.1914,-97.0507,0.0,11.83253988,319.5929184,15.75,'11111222,11111222,11111222' 
TABS,ioos:station:wmo:42044:1,2009-12-02T00:00:00Z,26.1914,-97.0507,0.0,11.90875728,311.4935993,14.81,'11111222,11111222,11111222' 
TABS,ioos:station:wmo:42044:1,2009-12-02T00:30:00Z,26.1914,-97.0507,0.0,9.905094649,319.2166398,12.41,'11111222,11111222,11111222' 
TABS,ioos:station:wmo:42044:1,2009-12-02T01:00:00Z,26.1914,-97.0507,0.0,9.937590251,316.3453814,12.48,'11111222,11111222,11111222' 
TABS,ioos:station:wmo:42044:1,2009-12-02T01:30:00Z,26.1914,-97.0507,0.0,9.559377595,319.8796721,11.93,'11111222,11111222,11111222' 
TABS,ioos:station:wmo:42044:1,2009-12-02T02:00:00Z,26.1914,-97.0507,0.0,9.691878043,312.1980338,12.05,'11111222,11111222,11111222' 
TABS,ioos:station:wmo:42044:1,2009-12-02T02:30:00Z,26.1914,-97.0507,0.0,9.975489963,318.5762208,12.47,'11111222,11111222,11111222' 
TABS,ioos:station:wmo:42044:1,2009-12-02T03:00:00Z,26.1914,-97.0507,0.0,9.291383105,314.9998948,12.39,'11111222,11111222,11111222' 
TABS,ioos:station:wmo:42044:1,2009-12-02T03:30:00Z,26.1914,-97.0507,0.0,9.122773701,315.8881282,12.88,'11111222,11111222,11111222' 
TABS,ioos:station:wmo:42044:1,2009-12-02T04:00:00Z,26.1914,-97.0507,0.0,9.035358322,312.9816977,11.76,'11111222,11111222,11111222' 
TABS,ioos:station:wmo:42044:1,2009-12-02T04:30:00Z,26.1914,-97.0507,0.0,8.542423544,315.6638874,11.5,'11111222,11111222,11111222' 
TABS,ioos:station:wmo:42044:1,2009-12-02T05:00:00Z,26.1914,-97.0507,0.0,8.043512914,307.9811021,10.46,'11111222,11111222,11111222' 
TABS,ioos:station:wmo:42044:1,2009-12-02T05:30:00Z,26.1914,-97.0507,0.0,6.510675848,299.4391796,8.55,'11111222,11111222,11111222' 
TABS,ioos:station:wmo:42044:1,2009-12-02T06:00:00Z,26.1914,-97.0507,0.0,5.482335269,302.1825565,7.42,'11111222,11111222,11111222' 
TABS,ioos:station:wmo:42044:1,2009-12-02T06:30:00Z,26.1914,-97.0507,0.0,5.579175566,299.4136267,7.63,'11111222,11111222,11111222' 
TABS,ioos:station:wmo:42044:1,2009-12-02T07:00:00Z,26.1914,-97.0507,0.0,5.075519678,299.8988319,7.57,'11111222,11111222,11111222' 
TABS,ioos:station:wmo:42044:1,2009-12-02T07:30:00Z,26.1914,-97.0507,0.0,5.089361453,296.8670723,7.08,'11111222,11111222,11111222' 
TABS,ioos:station:wmo:42044:1,2009-12-02T08:00:00Z,26.1914,-97.0507,0.0,5.496517079,296.0055701,7.98,'11111222,11111222,11111222' 
TABS,ioos:station:wmo:42044:1,2009-12-02T08:30:00Z,26.1914,-97.0507,0.0,6.196975069,292.3851117,8.42,'11111222,11111222,11111222' 
TABS,ioos:station:wmo:42044:1,2009-12-02T09:00:00Z,26.1914,-97.0507,0.0,7.490861099,296.3939578,10.09,'11111222,11111222,11111222' 
TABS,ioos:station:wmo:42044:1,2009-12-02T09:30:00Z,26.1914,-97.0507,0.0,7.171561894,305.0639342,9.22,'11111222,11111222,11111222' 
TABS,ioos:station:wmo:42044:1,2009-12-02T10:00:00Z,26.1914,-97.0507,0.0,7.081984185,313.1117112,9.77,'11111222,11111222,11111222' 
TABS,ioos:station:wmo:42044:1,2009-12-02T10:30:00Z,26.1914,-97.0507,0.0,7.933051115,312.7011254,10.05,'11111222,11111222,11111222' 
TABS,ioos:station:wmo:42044:1,2009-12-02T11:00:00Z,26.1914,-97.0507,0.0,8.149846624,313.2099883,10.54,'11111222,11111222,11111222' 
TABS,ioos:station:wmo:42044:1,2009-12-02T11:30:00Z,26.1914,-97.0507,0.0,7.622663576,315.2124936,9.46,'11111222,11111222,11111222' 
TABS,ioos:station:wmo:42044:1,2009-12-02T12:00:00Z,26.1914,-97.0507,0.0,6.133587857,313.2161778,7.82,'11111222,11111222,11111222' 
TABS,ioos:station:wmo:42044:1,2009-12-02T12:30:00Z,26.1914,-97.0507,0.0,5.232055046,306.6069892,6.92,'11111222,11111222,11111222' 
TABS,ioos:station:wmo:42044:1,2009-12-02T13:00:00Z,26.1914,-97.0507,0.0,4.569912472,298.9205827,6.47,'11111222,11111222,11111222' 
TABS,ioos:station:wmo:42044:1,2009-12-02T13:30:00Z,26.1914,-97.0507,0.0,5.755423529,305.5954574,7.66,'11111222,11111222,11111222' 
TABS,ioos:station:wmo:42044:1,2009-12-02T14:00:00Z,26.1914,-97.0507,0.0,6.256932156,307.8588324,8.1,'11111222,11111222,11111222' 
TABS,ioos:station:wmo:42044:1,2009-12-02T14:30:00Z,26.1914,-97.0507,0.0,5.351037283,301.5513112,6.87,'11111222,11111222,11111222' 
TABS,ioos:station:wmo:42044:1,2009-12-02T15:00:00Z,26.1914,-97.0507,0.0,5.120956942,308.8169791,7.17,'11111222,11111222,11111222' 
TABS,ioos:station:wmo:42044:1,2009-12-02T15:30:00Z,26.1914,-97.0507,0.0,6.045072373,318.8228769,7.73,'11111222,11111222,11111222' 
TABS,ioos:station:wmo:42044:1,2009-12-02T16:00:00Z,26.1914,-97.0507,0.0,4.860504089,306.0446226,6.69,'11111222,11111222,11111222' 
TABS,ioos:station:wmo:42044:1,2009-12-02T16:30:00Z,26.1914,-97.0507,0.0,5.297622108,304.2299317,7.18,'11111222,11111222,11111222' 
TABS,ioos:station:wmo:42044:1,2009-12-02T17:00:00Z,26.1914,-97.0507,0.0,4.480647275,302.2357367,6.25,'11111222,11111222,11111222' 
TABS,ioos:station:wmo:42044:1,2009-12-02T17:30:00Z,26.1914,-97.0507,0.0,4.670171303,306.3790684,6.35,'11111222,11111222,11111222' 
TABS,ioos:station:wmo:42044:1,2009-12-02T18:00:00Z,26.1914,-97.0507,0.0,5.453604313,318.270375,7.02,'11111222,11111222,11111222' 
TABS,ioos:station:wmo:42044:1,2009-12-02T18:30:00Z,26.1914,-97.0507,0.0,6.231572835,321.8426522,7.81,'11111222,11111222,11111222' 
TABS,ioos:station:wmo:42044:1,2009-12-02T19:00:00Z,26.1914,-97.0507,0.0,6.291152518,328.2551335,8.19,'11111222,11111222,11111222' 
TABS,ioos:station:wmo:42044:1,2009-12-02T19:30:00Z,26.1914,-97.0507,0.0,6.484635688,333.2372301,8.0,'11111222,11111222,11111222' 
TABS,ioos:station:wmo:42044:1,2009-12-02T20:00:00Z,26.1914,-97.0507,0.0,5.894785832,328.3859936,7.38,'11111222,11111222,11111222' 
TABS,ioos:station:wmo:42044:1,2009-12-02T20:30:00Z,26.1914,-97.0507,0.0,5.932461546,323.8446878,8.31,'11111222,11111222,11111222' 
TABS,ioos:station:wmo:42044:1,2009-12-02T21:00:00Z,26.1914,-97.0507,0.0,5.842687738,320.8346701,8.02,'11111222,11111222,11111222' 
TABS,ioos:station:wmo:42044:1,2009-12-02T21:30:00Z,26.1914,-97.0507,0.0,5.648760926,327.8009519,9.08,'11111222,11111222,11111222' 
TABS,ioos:station:wmo:42044:1,2009-12-02T22:00:00Z,26.1914,-97.0507,0.0,5.837002655,339.0187072,7.86,'11111222,11111222,11111222' 
TABS,ioos:station:wmo:42044:1,2009-12-02T22:30:00Z,26.1914,-97.0507,0.0,6.187220701,327.8766901,7.74,'11111222,11111222,11111222' 
TABS,ioos:station:wmo:42044:1,2009-12-02T23:00:00Z,26.1914,-97.0507,0.0,7.472001071,353.2362118,9.8,'11111222,11111222,11111222' 
TABS,ioos:station:wmo:42044:1,2009-12-02T23:30:00Z,26.1914,-97.0507,0.0,7.618044368,345.9453377,10.07,'11111222,11111222,11111222' 
TABS,ioos:station:wmo:42044:1,2009-12-03T00:00:00Z,26.1914,-97.0507,0.0,9.92767848,348.2597781,12.06,'11111222,11111222,11111222' 
TABS,ioos:station:wmo:42044:1,2009-12-03T00:30:00Z,26.1914,-97.0507,0.0,10.48217535,353.7561918,12.89,'11111222,11111222,11111222' 
TABS,ioos:station:wmo:42044:1,2009-12-03T01:00:00Z,26.1914,-97.0507,0.0,10.43334079,354.7755417,13.14,'11111222,11111222,11111222' 
TABS,ioos:station:wmo:42044:1,2009-12-03T01:30:00Z,26.1914,-97.0507,0.0,9.45169297,356.1171737,12.44,'11111222,11111222,11111222' 
TABS,ioos:station:wmo:42044:1,2009-12-03T02:00:00Z,26.1914,-97.0507,0.0,9.898004849,353.7938541,12.25,'11111222,11111222,11111222' 
TABS,ioos:station:wmo:42044:1,2009-12-03T02:30:00Z,26.1914,-97.0507,0.0,10.06595251,4.843778589,12.71,'11111222,11111222,11111222' 
TABS,ioos:station:wmo:42044:1,2009-12-03T03:00:00Z,26.1914,-97.0507,0.0,9.751246074,4.587756937,12.36,'11111222,11111222,11111222' 
TABS,ioos:station:wmo:42044:1,2009-12-03T03:30:00Z,26.1914,-97.0507,0.0,9.905806378,6.084469178,12.13,'11111222,11111222,11111222' 
TABS,ioos:station:wmo:42044:1,2009-12-03T04:00:00Z,26.1914,-97.0507,0.0,10.13959565,17.50546496,12.88,'11111222,11111222,11111222' 
TABS,ioos:station:wmo:42044:1,2009-12-03T04:30:00Z,26.1914,-97.0507,0.0,9.63338466,30.5044655,12.91,'11111222,11111222,11111222' 
TABS,ioos:station:wmo:42044:1,2009-12-03T05:00:00Z,26.1914,-97.0507,0.0,9.390979715,24.13567617,12.15,'11111222,11111222,11111222' 
TABS,ioos:station:wmo:42044:1,2009-12-03T05:30:00Z,26.1914,-97.0507,0.0,8.694388995,25.91639877,11.7,'11111222,11111222,11111222' 
TABS,ioos:station:wmo:42044:1,2009-12-03T06:00:00Z,26.1914,-97.0507,0.0,6.669100389,23.41266174,8.7,'11111222,11111222,11111222' 
TABS,ioos:station:wmo:42044:1,2009-12-03T06:30:00Z,26.1914,-97.0507,0.0,5.787028599,26.25483609,8.2,'11111222,11111222,11111222' 
TABS,ioos:station:wmo:42044:1,2009-12-03T07:00:00Z,26.1914,-97.0507,0.0,6.122646487,24.30428197,8.43,'11111222,11111222,11111222' 
TABS,ioos:station:wmo:42044:1,2009-12-03T07:30:00Z,26.1914,-97.0507,0.0,6.962944779,30.65300769,8.98,'11111222,11111222,11111222' 
TABS,ioos:station:wmo:42044:1,2009-12-03T08:00:00Z,26.1914,-97.0507,0.0,6.417982549,19.76166117,8.45,'11111222,11111222,11111222' 
TABS,ioos:station:wmo:42044:1,2009-12-03T08:30:00Z,26.1914,-97.0507,0.0,6.871950233,17.881004,8.54,'11111222,11111222,11111222' 
TABS,ioos:station:wmo:42044:1,2009-12-03T09:00:00Z,26.1914,-97.0507,0.0,6.158774229,6.432428423,8.37,'11111222,11111222,11111222' 
TABS,ioos:station:wmo:42044:1,2009-12-03T09:30:00Z,26.1914,-97.0507,0.0,6.131598487,1.308108655,7.93,'11111222,11111222,11111222' 
TABS,ioos:station:wmo:42044:1,2009-12-03T10:00:00Z,26.1914,-97.0507,0.0,6.011830004,8.224219898,8.06,'11111222,11111222,11111222' 
TABS,ioos:station:wmo:42044:1,2009-12-03T10:30:00Z,26.1914,-97.0507,0.0,6.412152525,10.24067483,8.58,'11111222,11111222,11111222' 
TABS,ioos:station:wmo:42044:1,2009-12-03T11:00:00Z,26.1914,-97.0507,0.0,6.900876756,0.913121015,9.17,'11111222,11111222,11111222' 
TABS,ioos:station:wmo:42044:1,2009-12-03T11:30:00Z,26.1914,-97.0507,0.0,7.142954571,3.451027014,9.27,'11111222,11111222,11111222' 
TABS,ioos:station:wmo:42044:1,2009-12-03T12:00:00Z,26.1914,-97.0507,0.0,6.501507517,1.233658823,9.11,'11111222,11111222,11111222' 
TABS,ioos:station:wmo:42044:1,2009-12-03T12:30:00Z,26.1914,-97.0507,0.0,6.741876593,3.401175654,8.56,'11111222,11111222,11111222' 
TABS,ioos:station:wmo:42044:1,2009-12-03T13:00:00Z,26.1914,-97.0507,0.0,6.925178698,4.887094396,9.22,'11111222,11111222,11111222' 
TABS,ioos:station:wmo:42044:1,2009-12-03T13:30:00Z,26.1914,-97.0507,0.0,8.194888651,22.15169487,10.59,'11111222,11111222,11111222' 
TABS,ioos:station:wmo:42044:1,2009-12-03T14:00:00Z,26.1914,-97.0507,0.0,8.800482941,30.14836941,11.93,'11111222,11111222,11111222' 
TABS,ioos:station:wmo:42044:1,2009-12-03T14:30:00Z,26.1914,-97.0507,0.0,8.27111238,25.26353286,10.5,'11111222,11111222,11111222' 
TABS,ioos:station:wmo:42044:1,2009-12-03T15:00:00Z,26.1914,-97.0507,0.0,7.106124119,16.59859809,8.73,'11111222,11111222,11111222' 
TABS,ioos:station:wmo:42044:1,2009-12-03T15:30:00Z,26.1914,-97.0507,0.0,6.041522987,24.44368716,8.75,'11111222,11111222,11111222' 
TABS,ioos:station:wmo:42044:1,2009-12-03T16:00:00Z,26.1914,-97.0507,0.0,5.707889277,39.88238143,7.93,'11111222,11111222,11111222' 
TABS,ioos:station:wmo:42044:1,2009-12-03T16:30:00Z,26.1914,-97.0507,0.0,5.119072182,42.0700977,6.57,'11111222,11111222,11111222' 
TABS,ioos:station:wmo:42044:1,2009-12-03T17:00:00Z,26.1914,-97.0507,0.0,6.112552658,15.85502025,8.88,'11111222,11111222,11111222' 
TABS,ioos:station:wmo:42044:1,2009-12-03T17:30:00Z,26.1914,-97.0507,0.0,7.890912495,0.871139021,10.45,'11111222,11111222,11111222' 
TABS,ioos:station:wmo:42044:1,2009-12-03T18:00:00Z,26.1914,-97.0507,0.0,8.073115879,3.266220941,9.68,'11111222,11111222,11111222' 
TABS,ioos:station:wmo:42044:1,2009-12-03T18:30:00Z,26.1914,-97.0507,0.0,8.126653678,3.668471058,10.4,'11111222,11111222,11111222' 
TABS,ioos:station:wmo:42044:1,2009-12-03T19:00:00Z,26.1914,-97.0507,0.0,7.951100553,6.499120623,10.16,'11111222,11111222,11111222' 
TABS,ioos:station:wmo:42044:1,2009-12-03T19:30:00Z,26.1914,-97.0507,0.0,7.436161644,14.16681194,10.04,'11111222,11111222,11111222' 
TABS,ioos:station:wmo:42044:1,2009-12-03T20:00:00Z,26.1914,-97.0507,0.0,7.33062071,17.79206181,10.47,'11111222,11111222,11111222' 
TABS,ioos:station:wmo:42044:1,2009-12-03T20:30:00Z,26.1914,-97.0507,0.0,7.927527988,9.877956976,9.73,'11111222,11111222,11111222' 
TABS,ioos:station:wmo:42044:1,2009-12-03T21:00:00Z,26.1914,-97.0507,0.0,7.60384771,11.91558515,10.26,'11111222,11111222,11111222' 
TABS,ioos:station:wmo:42044:1,2009-12-03T21:30:00Z,26.1914,-97.0507,0.0,7.707846651,14.27037377,10.29,'11111222,11111222,11111222' 
TABS,ioos:station:wmo:42044:1,2009-12-03T22:00:00Z,26.1914,-97.0507,0.0,7.177973252,16.84425959,9.49,'11111222,11111222,11111222' 
TABS,ioos:station:wmo:42044:1,2009-12-03T22:30:00Z,26.1914,-97.0507,0.0,7.508728255,10.20223743,9.8,'11111222,11111222,11111222' 
TABS,ioos:station:wmo:42044:1,2009-12-03T23:00:00Z,26.1914,-97.0507,0.0,7.417411948,11.82476682,9.87,'11111222,11111222,11111222' 
TABS,ioos:station:wmo:42044:1,2009-12-03T23:30:00Z,26.1914,-97.0507,0.0,7.219258965,10.85831297,10.18,'11111222,11111222,11111222' 
TABS,ioos:station:wmo:42044:1,2009-12-04T00:00:00Z,26.1914,-97.0507,0.0,7.665800676,5.539315855,9.74,'11111222,11111222,11111222' 
TABS,ioos:station:wmo:42044:1,2009-12-04T00:30:00Z,26.1914,-97.0507,0.0,7.920056818,0.216817464,10.68,'11111222,11111222,11111222' 
TABS,ioos:station:wmo:42044:1,2009-12-04T01:00:00Z,26.1914,-97.0507,0.0,7.346359643,3.824231343,9.6,'11111222,11111222,11111222' 
TABS,ioos:station:wmo:42044:1,2009-12-04T01:30:00Z,26.1914,-97.0507,0.0,7.744707871,1.997664726,9.91,'11111222,11111222,11111222' 
TABS,ioos:station:wmo:42044:1,2009-12-04T02:00:00Z,26.1914,-97.0507,0.0,7.822288668,5.207469183,10.51,'11111222,11111222,11111222' 
TABS,ioos:station:wmo:42044:1,2009-12-04T02:30:00Z,26.1914,-97.0507,0.0,7.05896593,6.752287205,9.69,'11111222,11111222,11111222' 
TABS,ioos:station:wmo:42044:1,2009-12-04T03:00:00Z,26.1914,-97.0507,0.0,7.173980764,11.09041314,9.82,'11111222,11111222,11111222' 
TABS,ioos:station:wmo:42044:1,2009-12-04T03:30:00Z,26.1914,-97.0507,0.0,7.173904097,12.64118398,9.65,'11111222,11111222,11111222' 
TABS,ioos:station:wmo:42044:1,2009-12-04T04:00:00Z,26.1914,-97.0507,0.0,7.489732973,11.08465491,9.34,'11111222,11111222,11111222' 
TABS,ioos:station:wmo:42044:1,2009-12-04T04:30:00Z,26.1914,-97.0507,0.0,7.636347294,9.573103651,9.63,'11111222,11111222,11111222' 
TABS,ioos:station:wmo:42044:1,2009-12-04T05:00:00Z,26.1914,-97.0507,0.0,6.674278987,19.79215793,8.35,'11111222,11111222,11111222' 
TABS,ioos:station:wmo:42044:1,2009-12-04T05:30:00Z,26.1914,-97.0507,0.0,6.480964434,35.13657818,8.48,'11111222,11111222,11111222' 
TABS,ioos:station:wmo:42044:1,2009-12-04T06:00:00Z,26.1914,-97.0507,0.0,6.29448171,32.47788721,8.6,'11111222,11111222,11111222' 
TABS,ioos:station:wmo:42044:1,2009-12-04T06:30:00Z,26.1914,-97.0507,0.0,7.579023684,23.3174434,9.24,'11111222,11111222,11111222' 
TABS,ioos:station:wmo:42044:1,2009-12-04T07:00:00Z,26.1914,-97.0507,0.0,8.912014363,24.95448176,11.35,'11111222,11111222,11111222' 
TABS,ioos:station:wmo:42044:1,2009-12-04T07:30:00Z,26.1914,-97.0507,0.0,9.565531872,22.30167968,11.63,'11111222,11111222,11111222' 
TABS,ioos:station:wmo:42044:1,2009-12-04T08:00:00Z,26.1914,-97.0507,0.0,10.05497389,30.87552204,12.87,'11111222,11111222,11111222' 
TABS,ioos:station:wmo:42044:1,2009-12-04T08:30:00Z,26.1914,-97.0507,0.0,9.610265345,29.55233474,12.6,'11111222,11111222,11111222' 
TABS,ioos:station:wmo:42044:1,2009-12-04T09:00:00Z,26.1914,-97.0507,0.0,9.696030115,28.38852769,11.94,'11111222,11111222,11111222' 
TABS,ioos:station:wmo:42044:1,2009-12-04T09:30:00Z,26.1914,-97.0507,0.0,9.221632177,26.814855,11.2,'11111222,11111222,11111222' 
TABS,ioos:station:wmo:42044:1,2009-12-04T10:00:00Z,26.1914,-97.0507,0.0,8.764131446,36.55579865,11.33,'11111222,11111222,11111222' 
TABS,ioos:station:wmo:42044:1,2009-12-04T10:30:00Z,26.1914,-97.0507,0.0,8.804345518,31.9568112,10.85,'11111222,11111222,11111222' 
TABS,ioos:station:wmo:42044:1,2009-12-04T11:00:00Z,26.1914,-97.0507,0.0,8.281358584,4.987499393,10.47,'11111222,11111222,11111222' 
TABS,ioos:station:wmo:42044:1,2009-12-04T11:30:00Z,26.1914,-97.0507,0.0,10.12049406,359.4336455,12.44,'11111222,11144222,11111222' 
TABS,ioos:station:wmo:42044:1,2009-12-04T12:00:00Z,26.1914,-97.0507,0.0,11.20610994,1.891903992,13.95,'11111222,11111222,11111222' 
TABS,ioos:station:wmo:42044:1,2009-12-04T12:30:00Z,26.1914,-97.0507,0.0,13.13055977,333.0054815,17.35,'11111222,11111222,11111222' 
TABS,ioos:station:wmo:42044:1,2009-12-04T13:00:00Z,26.1914,-97.0507,0.0,12.82126359,328.9134825,16.25,'11111222,11111222,11111222' 
TABS,ioos:station:wmo:42044:1,2009-12-04T13:30:00Z,26.1914,-97.0507,0.0,13.55700926,330.3336086,17.7,'11111222,11111222,11111222' 
TABS,ioos:station:wmo:42044:1,2009-12-04T14:00:00Z,26.1914,-97.0507,0.0,13.65766085,332.0088031,17.51,'11111222,11111222,11111222' 
TABS,ioos:station:wmo:42044:1,2009-12-04T14:30:00Z,26.1914,-97.0507,0.0,12.50312361,325.0641632,18.5,'11111222,11111222,11111222' 
TABS,ioos:station:wmo:42044:1,2009-12-04T15:00:00Z,26.1914,-97.0507,0.0,14.26655179,297.0140053,17.82,'11111222,11111222,11111222' 
TABS,ioos:station:wmo:42044:1,2009-12-04T15:30:00Z,26.1914,-97.0507,0.0,14.36847243,300.5807158,18.97,'11111222,11111222,11111222' 
TABS,ioos:station:wmo:42044:1,2009-12-04T16:00:00Z,26.1914,-97.0507,0.0,14.78715659,295.5599054,18.41,'11111222,11111222,11111222' 
TABS,ioos:station:wmo:42044:1,2009-12-04T16:30:00Z,26.1914,-97.0507,0.0,15.10566119,301.1328125,19.6,'11111222,11111222,11111222' 
TABS,ioos:station:wmo:42044:1,2009-12-04T17:00:00Z,26.1914,-97.0507,0.0,14.51416549,295.5939694,18.53,'11111222,11111222,11111222' 
TABS,ioos:station:wmo:42044:1,2009-12-04T17:30:00Z,26.1914,-97.0507,0.0,15.18072791,293.6098724,20.66,'11111222,11111222,11111222' 
TABS,ioos:station:wmo:42044:1,2009-12-04T18:00:00Z,26.1914,-97.0507,0.0,14.17034933,294.249812,18.49,'11111222,11111222,11111222' 
TABS,ioos:station:wmo:42044:1,2009-12-04T18:30:00Z,26.1914,-97.0507,0.0,13.52670322,309.1492427,17.4,'11111222,11111222,11111222' 